Time,TemperatureF,DewpointF,PressureIn,WindDirection,WindDirectionDegrees,WindSpeedMPH,WindSpeedGustMPH,Humidity,HourlyPrecipIn,Conditions,Clouds,dailyrainin,SoftwareType,DateUTC
2013-07-13 00:02:00,65.2,-99.9,30.05,East,88,0.0,-999.0,0,-99.99,,,0.01,weatherlink.com 1.10,2013-07-13 04:02:00,
2013-07-13 00:17:00,65.4,-99.9,30.04,East,88,0.0,-999.0,0,-99.99,,,0.01,weatherlink.com 1.10,2013-07-13 04:17:00,
2013-07-13 00:32:00,65.4,-99.9,30.05,East,88,0.0,-999.0,0,-99.99,,,0.00,weatherlink.com 1.10,2013-07-13 04:32:00,
2013-07-13 00:47:00,65.1,-99.9,30.06,East,88,0.0,-999.0,0,-99.99,,,0.00,weatherlink.com 1.10,2013-07-13 04:47:00,
2013-07-13 01:02:00,65.0,-99.9,30.06,East,88,0.0,-999.0,0,-99.99,,,0.00,weatherlink.com 1.10,2013-07-13 05:02:00,
2013-07-13 01:17:00,64.8,-99.9,30.06,East,88,0.0,-999.0,0,-99.99,,,0.00,weatherlink.com 1.10,2013-07-13 05:17:00,
2013-07-13 01:32:00,64.7,-99.9,30.06,East,88,0.0,-999.0,0,-99.99,,,0.00,weatherlink.com 1.10,2013-07-13 05:32:00,
2013-07-13 01:47:00,64.6,-99.9,30.06,East,88,0.0,-999.0,0,-99.99,,,0.00,weatherlink.com 1.10,2013-07-13 05:47:00,
2013-07-13 02:02:00,64.7,-99.9,30.06,East,88,0.0,-999.0,0,-99.99,,,0.00,weatherlink.com 1.10,2013-07-13 06:02:00,
2013-07-13 02:17:00,64.3,-99.9,30.06,East,88,0.0,-999.0,0,-99.99,,,0.00,weatherlink.com 1.10,2013-07-13 06:17:00,
2013-07-13 02:32:00,64.1,-99.9,30.06,East,88,0.0,-999.0,0,-99.99,,,0.00,weatherlink.com 1.10,2013-07-13 06:32:00,
2013-07-13 02:47:00,64.0,-99.9,30.06,East,88,0.0,-999.0,0,-99.99,,,0.00,weatherlink.com 1.10,2013-07-13 06:47:00,
2013-07-13 03:17:00,63.9,-99.9,30.05,East,88,0.0,-999.0,0,-99.99,,,0.00,weatherlink.com 1.10,2013-07-13 07:17:00,
2013-07-13 03:32:00,63.7,-99.9,30.05,East,88,0.0,-999.0,0,-99.99,,,0.00,weatherlink.com 1.10,2013-07-13 07:32:00,
2013-07-13 03:47:00,63.5,-99.9,30.05,East,88,0.0,-999.0,0,-99.99,,,0.00,weatherlink.com 1.10,2013-07-13 07:47:00,
2013-07-13 04:02:00,63.6,-99.9,30.06,East,88,0.0,-999.0,0,-99.99,,,0.00,weatherlink.com 1.10,2013-07-13 08:02:00,
2013-07-13 04:17:00,63.7,-99.9,30.06,East,88,0.0,-999.0,0,-99.99,,,0.00,weatherlink.com 1.10,2013-07-13 08:17:00,
2013-07-13 04:32:00,63.9,-99.9,30.05,East,88,0.0,-999.0,0,-99.99,,,0.00,weatherlink.com 1.10,2013-07-13 08:32:00,
2013-07-13 04:47:00,64.0,-99.9,30.04,East,88,0.0,-999.0,0,-99.99,,,0.00,weatherlink.com 1.10,2013-07-13 08:47:00,
2013-07-13 05:02:00,64.0,-99.9,30.05,East,99,0.0,-999.0,0,-99.99,,,0.00,weatherlink.com 1.10,2013-07-13 09:02:00,
2013-07-13 05:17:00,64.1,-99.9,30.06,ENE,74,0.0,-999.0,0,-99.99,,,0.00,weatherlink.com 1.10,2013-07-13 09:17:00,
2013-07-13 05:32:00,64.1,-99.9,30.07,ENE,74,0.0,-999.0,0,-99.99,,,0.00,weatherlink.com 1.10,2013-07-13 09:32:00,
2013-07-13 05:47:00,64.1,-99.9,30.07,ENE,74,0.0,-999.0,0,-99.99,,,0.00,weatherlink.com 1.10,2013-07-13 09:47:00,
2013-07-13 06:02:00,64.1,-99.9,30.07,ENE,74,0.0,-999.0,0,-99.99,,,0.00,weatherlink.com 1.10,2013-07-13 10:02:00,
2013-07-13 06:17:00,64.1,-99.9,30.08,ENE,74,0.0,-999.0,0,-99.99,,,0.00,weatherlink.com 1.10,2013-07-13 10:17:00,
2013-07-13 06:32:00,64.2,-99.9,30.08,ENE,74,0.0,-999.0,0,-99.99,,,0.00,weatherlink.com 1.10,2013-07-13 10:32:00,
2013-07-13 06:47:00,64.3,-99.9,30.08,ENE,74,0.0,-999.0,0,-99.99,,,0.00,weatherlink.com 1.10,2013-07-13 10:47:00,
2013-07-13 07:02:00,64.4,-99.9,30.07,ENE,74,0.0,-999.0,0,-99.99,,,0.00,weatherlink.com 1.10,2013-07-13 11:02:00,
2013-07-13 07:17:00,64.4,-99.9,30.08,ENE,74,0.0,-999.0,0,-99.99,,,0.00,weatherlink.com 1.10,2013-07-13 11:17:00,
2013-07-13 07:32:00,64.5,-99.9,30.09,ENE,74,0.0,-999.0,0,-99.99,,,0.00,weatherlink.com 1.10,2013-07-13 11:32:00,
2013-07-13 07:47:00,64.7,-99.9,30.09,ENE,74,0.0,-999.0,0,-99.99,,,0.00,weatherlink.com 1.10,2013-07-13 11:47:00,
2013-07-13 08:02:00,64.9,-99.9,30.09,ESE,121,0.0,-999.0,0,-99.99,,,0.00,weatherlink.com 1.10,2013-07-13 12:02:00,
2013-07-13 08:17:00,65.3,-99.9,30.10,ESE,115,0.0,-999.0,0,-99.99,,,0.00,weatherlink.com 1.10,2013-07-13 12:17:00,
2013-07-13 08:32:00,65.6,-99.9,30.11,ESE,107,0.0,-999.0,0,-99.99,,,0.01,weatherlink.com 1.10,2013-07-13 12:32:00,
2013-07-13 08:47:00,65.5,-99.9,30.11,ESE,107,0.0,-999.0,0,-99.99,,,0.01,weatherlink.com 1.10,2013-07-13 12:47:00,
2013-07-13 09:02:00,65.7,-99.9,30.12,ESE,107,0.0,-999.0,0,-99.99,,,0.01,weatherlink.com 1.10,2013-07-13 13:02:00,
2013-07-13 09:17:00,65.9,-99.9,30.13,ESE,106,0.0,-999.0,0,-99.99,,,0.01,weatherlink.com 1.10,2013-07-13 13:17:00,
2013-07-13 09:32:00,66.0,-99.9,30.14,ESE,106,0.0,-999.0,0,-99.99,,,0.01,weatherlink.com 1.10,2013-07-13 13:32:00,
2013-07-13 09:47:00,66.1,-99.9,30.14,ESE,106,0.0,-999.0,0,-99.99,,,0.01,weatherlink.com 1.10,2013-07-13 13:47:00,
2013-07-13 10:02:00,66.1,-99.9,30.14,ESE,106,0.0,-999.0,0,-99.99,,,0.01,weatherlink.com 1.10,2013-07-13 14:02:00,
2013-07-13 10:17:00,66.2,-99.9,30.14,ESE,116,0.0,-999.0,0,-99.99,,,0.01,weatherlink.com 1.10,2013-07-13 14:17:00,
2013-07-13 10:32:00,66.3,-99.9,30.14,SE,135,0.0,-999.0,0,-99.99,,,0.01,weatherlink.com 1.10,2013-07-13 14:32:00,
2013-07-13 10:47:00,66.3,-99.9,30.14,ENE,71,0.0,-999.0,0,-99.99,,,0.01,weatherlink.com 1.10,2013-07-13 14:47:00,
2013-07-13 11:02:00,66.5,-99.9,30.15,East,100,0.0,-999.0,0,-99.99,,,0.01,weatherlink.com 1.10,2013-07-13 15:02:00,
2013-07-13 11:17:00,66.5,-99.9,30.16,ESE,115,0.0,-999.0,0,-99.99,,,0.01,weatherlink.com 1.10,2013-07-13 15:17:00,
2013-07-13 11:32:00,66.8,-99.9,30.16,ESE,111,0.0,-999.0,0,-99.99,,,0.01,weatherlink.com 1.10,2013-07-13 15:32:00,
2013-07-13 11:47:00,67.1,-99.9,30.16,East,85,0.0,-999.0,0,-99.99,,,0.01,weatherlink.com 1.10,2013-07-13 15:47:00,
2013-07-13 12:02:00,67.2,-99.9,30.16,ESE,105,0.0,-999.0,0,-99.99,,,0.01,weatherlink.com 1.10,2013-07-13 16:02:00,
2013-07-13 12:17:00,67.6,-99.9,30.16,ESE,123,0.0,-999.0,0,-99.99,,,0.01,weatherlink.com 1.10,2013-07-13 16:17:00,
2013-07-13 12:32:00,68.2,-99.9,30.16,ESE,122,0.0,-999.0,0,-99.99,,,0.01,weatherlink.com 1.10,2013-07-13 16:32:00,
2013-07-13 12:47:00,68.4,-99.9,30.16,East,80,0.0,-999.0,0,-99.99,,,0.01,weatherlink.com 1.10,2013-07-13 16:47:00,
2013-07-13 13:02:00,68.6,-99.9,30.16,East,88,0.0,-999.0,0,-99.99,,,0.01,weatherlink.com 1.10,2013-07-13 17:02:00,
2013-07-13 13:17:00,68.5,-99.9,30.16,ESE,121,0.0,-999.0,0,-99.99,,,0.01,weatherlink.com 1.10,2013-07-13 17:17:00,
2013-07-13 13:32:00,69.3,-99.9,30.16,SE,128,0.0,-999.0,0,-99.99,,,0.01,weatherlink.com 1.10,2013-07-13 17:32:00,
2013-07-13 13:47:00,69.3,-99.9,30.16,SE,125,0.0,-999.0,0,-99.99,,,0.01,weatherlink.com 1.10,2013-07-13 17:47:00,
2013-07-13 14:02:00,69.1,-99.9,30.15,ESE,123,0.0,-999.0,0,-99.99,,,0.01,weatherlink.com 1.10,2013-07-13 18:02:00,
2013-07-13 14:17:00,69.3,-99.9,30.15,NE,56,0.0,-999.0,0,-99.99,,,0.01,weatherlink.com 1.10,2013-07-13 18:17:00,
2013-07-13 14:32:00,69.1,-99.9,30.15,SE,126,0.0,-999.0,0,-99.99,,,0.01,weatherlink.com 1.10,2013-07-13 18:32:00,
2013-07-13 14:47:00,69.3,-99.9,30.16,East,82,0.0,-999.0,0,-99.99,,,0.01,weatherlink.com 1.10,2013-07-13 18:47:00,
2013-07-13 15:02:00,69.8,-99.9,30.15,ENE,63,0.0,-999.0,0,-99.99,,,0.01,weatherlink.com 1.10,2013-07-13 19:02:00,
2013-07-13 15:17:00,70.7,-99.9,30.14,ENE,69,0.0,-999.0,0,-99.99,,,0.01,weatherlink.com 1.10,2013-07-13 19:17:00,
2013-07-13 15:32:00,70.8,-99.9,30.15,SE,126,0.0,-999.0,0,-99.99,,,0.01,weatherlink.com 1.10,2013-07-13 19:32:00,
2013-07-13 15:47:00,70.8,-99.9,30.15,SE,125,0.0,-999.0,0,-99.99,,,0.01,weatherlink.com 1.10,2013-07-13 19:47:00,
2013-07-13 16:02:00,71.0,-14.0,30.14,SE,125,0.0,-999.0,3,-99.99,,,0.01,weatherlink.com 1.10,2013-07-13 20:02:00,
2013-07-13 16:17:00,71.5,-99.9,30.14,East,80,0.0,-999.0,0,-99.99,,,0.01,weatherlink.com 1.10,2013-07-13 20:17:00,
2013-07-13 16:32:00,71.9,10.0,30.14,ESE,115,0.0,-999.0,9,-99.99,,,0.01,weatherlink.com 1.10,2013-07-13 20:32:00,
2013-07-13 16:47:00,71.8,25.0,30.14,ESE,117,0.0,-999.0,17,-99.99,,,0.01,weatherlink.com 1.10,2013-07-13 20:47:00,
2013-07-13 17:02:00,71.9,16.0,30.13,ESE,118,2.0,-999.0,12,-99.99,,,0.01,weatherlink.com 1.10,2013-07-13 21:02:00,
2013-07-13 17:17:00,72.5,34.0,30.12,ESE,111,0.0,-999.0,24,-99.99,,,0.01,weatherlink.com 1.10,2013-07-13 21:17:00,
2013-07-13 17:32:00,72.7,38.0,30.12,ESE,117,0.0,-999.0,28,-99.99,,,0.01,weatherlink.com 1.10,2013-07-13 21:32:00,
2013-07-13 17:47:00,72.8,41.0,30.12,SE,128,0.0,-999.0,32,-99.99,,,0.01,weatherlink.com 1.10,2013-07-13 21:47:00,
2013-07-13 18:02:00,72.4,41.0,30.12,ESE,104,0.0,-999.0,32,-99.99,,,0.01,weatherlink.com 1.10,2013-07-13 22:02:00,
2013-07-13 18:17:00,72.2,39.0,30.12,SE,146,0.0,-999.0,30,-99.99,,,0.01,weatherlink.com 1.10,2013-07-13 22:17:00,
2013-07-13 18:32:00,72.1,37.0,30.12,East,84,0.0,-999.0,28,-99.99,,,0.01,weatherlink.com 1.10,2013-07-13 22:32:00,
2013-07-13 18:47:00,71.9,29.0,30.12,ESE,107,0.0,-999.0,20,-99.99,,,0.01,weatherlink.com 1.10,2013-07-13 22:47:00,
2013-07-13 19:02:00,71.6,23.0,30.13,East,99,0.0,-999.0,16,-99.99,,,0.01,weatherlink.com 1.10,2013-07-13 23:02:00,
2013-07-13 19:17:00,71.6,12.0,30.13,ESE,108,0.0,-999.0,10,-99.99,,,0.01,weatherlink.com 1.10,2013-07-13 23:17:00,
2013-07-13 19:32:00,71.4,14.0,30.14,East,97,0.0,-999.0,11,-99.99,,,0.01,weatherlink.com 1.10,2013-07-13 23:32:00,
2013-07-13 19:47:00,71.4,12.0,30.13,ESE,103,0.0,-999.0,10,-99.99,,,0.01,weatherlink.com 1.10,2013-07-13 23:47:00,
2013-07-13 20:02:00,71.3,9.0,30.13,ESE,103,0.0,-999.0,9,-99.99,,,0.01,weatherlink.com 1.10,2013-07-14 00:02:00,
2013-07-13 20:17:00,71.2,-3.0,30.14,ESE,103,0.0,-999.0,5,-99.99,,,0.01,weatherlink.com 1.10,2013-07-14 00:17:00,
2013-07-13 20:32:00,70.9,-4.0,30.15,ESE,103,0.0,-999.0,5,-99.99,,,0.01,weatherlink.com 1.10,2013-07-14 00:32:00,
2013-07-13 20:47:00,70.7,-22.0,30.15,ESE,103,0.0,-999.0,2,-99.99,,,0.01,weatherlink.com 1.10,2013-07-14 00:47:00,
2013-07-13 21:02:00,70.6,-99.9,30.15,ESE,103,0.0,-999.0,0,-99.99,,,0.01,weatherlink.com 1.10,2013-07-14 01:02:00,
2013-07-13 21:17:00,70.5,-99.9,30.16,ESE,103,0.0,-999.0,0,-99.99,,,0.01,weatherlink.com 1.10,2013-07-14 01:17:00,
2013-07-13 21:32:00,70.4,-99.9,30.15,ESE,103,0.0,-999.0,0,-99.99,,,0.01,weatherlink.com 1.10,2013-07-14 01:32:00,
2013-07-13 21:47:00,70.3,-99.9,30.15,ESE,103,0.0,-999.0,0,-99.99,,,0.01,weatherlink.com 1.10,2013-07-14 01:47:00,
2013-07-13 22:02:00,70.2,-99.9,30.16,ESE,103,0.0,-999.0,0,-99.99,,,0.01,weatherlink.com 1.10,2013-07-14 02:02:00,
2013-07-13 22:17:00,70.1,-99.9,30.16,ESE,103,0.0,-999.0,0,-99.99,,,0.01,weatherlink.com 1.10,2013-07-14 02:17:00,
2013-07-13 22:32:00,70.0,-99.9,30.16,ESE,103,0.0,-999.0,0,-99.99,,,0.01,weatherlink.com 1.10,2013-07-14 02:32:00,
2013-07-13 22:47:00,69.9,-99.9,30.16,ESE,103,0.0,-999.0,0,-99.99,,,0.01,weatherlink.com 1.10,2013-07-14 02:47:00,
2013-07-13 23:02:00,69.8,-99.9,30.16,ESE,103,0.0,-999.0,0,-99.99,,,0.01,weatherlink.com 1.10,2013-07-14 03:02:00,
2013-07-13 23:17:00,69.7,-99.9,30.15,ESE,103,0.0,-999.0,0,-99.99,,,0.01,weatherlink.com 1.10,2013-07-14 03:17:00,
2013-07-13 23:32:00,69.6,-99.9,30.15,ESE,106,0.0,-999.0,0,-99.99,,,0.01,weatherlink.com 1.10,2013-07-14 03:32:00,
2013-07-13 23:47:00,69.5,-99.9,30.15,ESE,106,0.0,-999.0,0,-99.99,,,0.01,weatherlink.com 1.10,2013-07-14 03:47:00,